Regional Weather Roundup
Issued by NWS Newport/Morehead, NC

Current Version | Previous Version | Graphics & Text | Print | Product List | Glossary On
Versions: 1 2 3 4 5 6 7 8 9 10 11 12 13 14 15 16 17 18 19 20 21 22 23 24 25 26 27 28 29 30 31 32 33 34 35 36 37 38 39 40 41 42 43 44 45 46 47 48 49 50
000 ASUS42 KMHX 091225 RWRMHX WEATHER ROUNDUP FOR EASTERN NORTH CAROLINA NATIONAL WEATHER SERVICE NEWPORT/MOREHEAD CITY NC 700 AM EST TUE FEB 09 2016 NOTE: "FAIR" INDICATES FEW OR NO CLOUDS BELOW 12,000 FEET WITH NO SIGNIFICANT WEATHER AND/OR OBSTRUCTIONS TO VISIBILITY NCZ015>017-031-032-045>047-102-103-091300- NORTH COAST CITY SKY/WX TMP DP RH WIND PRES REMARKS EDENTON CLEAR 39 38 95 W6 29.60S ELIZABETH CITY CLEAR 38 36 92 W8 29.58R KITTY HAWK PTSUNNY 41 38 91 W7 29.56R MANTEO CLEAR 40 39 99 W6 29.59R $$ NCZ045>047-081-094-103-104-091300- CENTRAL COAST CITY SKY/WX TMP DP RH WIND PRES REMARKS FRISCO PTCLDY 42 38 85 W10G18 29.60R SWANQUARTER N/A 39 N/A N/A W5 29.59S $$ NCZ095-097-098-100-101-091300- SOUTHERN COAST CITY SKY/WX TMP DP RH WIND PRES REMARKS BEAUFORT PTCLDY 39 37 92 W6 29.64R CEDAR ISLAND N/A 41 N/A N/A W13 29.68S JACKSONVILLE CLOUDY 39 37 92 W8 29.65R FOG PINEY ISLAND SUNNY N/A N/A N/A W8 29.63R WILMINGTON PTCLDY 39 34 82 W12 29.68R $$ NCZ011>013-027>030-043-044-078>080-089-090>093-098-091300- COASTAL PLAIN CITY SKY/WX TMP DP RH WIND PRES REMARKS AHOSKIE PTCLDY 34 33 96 CALM 29.60S CLINTON CLOUDY 37 37 100 SW5 29.68R ELIZABETHTOWN CLOUDY 38 37 93 W7 29.70R GOLDSBORO CLOUDY 37 37 100 W7 29.63R GREENVILLE PTCLDY 34 34 100 W5 29.67R FOG HAVELOCK CLEAR 39 37 92 W8 29.65R KENANSVILLE CLOUDY 37 37 100 CALM 29.67R KINSTON FOG 36 36 100 SW3 29.64R VSB 1/4 NEW BERN PTCLDY 37 35 92 W5 29.65R FOG RICHLANDS CLOUDY 37 34 87 SW5 29.66R ROCKY MOUNT CLOUDY 37 33 85 W6 29.63R WASHINGTON PTCLDY 34 34 98 CALM 29.63R FOG WHITEVILLE MOCLDY 39 34 82 W6 29.71R $$ AMZ130-135-150-152-154-156-158-170-250-252-270-ANZ085-086-088-633-658-670-091300- MARINE OBSERVATIONS STATION/POSITION TIME TEMP WIND PRES WAVE SWELL AIR SEA DIR/SP/G HT/PER HT/PER (UTC) (F) (DEG/KT/KT) (MB) (FT/S) (FT/S) CHESAPEAKE LIGHT 1200 42 320/ 19/ 20 1000.8 64 E VA BEACH 1150 47 51 280/ 21/ 25 998.4 11/15 11/15 DUCK 1200 41 270/ 14/ 18 1000.7 2 E DUCK 1111 44 N/A 8/14 7/14 OREGON INLET 1200 41 45 250/ 11/ 15 1001.4 13E OREGON INLT 1200 47 N/A 12/14 11/14 HATTERAS CG 1200 44 52 280/ 16/ 19 1002.0 DIAMOND BUOY 1150 48 73 290/ 16/ 21 1002.1 10/14 10/14 CAPE LOOKOUT NOT AVBL BEAUFORT LAB 1200 41 47 290/ 5/ 7 1002.5 30 SE NEW RVR IN 1208 48 60 1003.7 30 SE NEW RVR IN 1125 60 N/A 7/15 3/15 27 SE WRIGHTSVLE 1208 39 61 300/ 19/ 23 1003.5 5 SE WRIGHTSVLE 1108 43 51 270/ 19/ 25 1004.2 225 S CAPE HAT 1150 60 69 290/ 31/ 39 N/A 19/ 9 5/16 41 SE CHARLESTON 1150 48 65 270/ 25/ 31 1007.9 8/ 6 2/13 $$

USA.gov is the U.S. government's official web portal to all federal, state and local government web resources and services.